AX503 Weather Reports


time (UTC)temp
C
wind
direction
speed
KPH
gust
KPH
rain 1hr
cm
rain 24hr
cm
rain mn
cm
humidity
%
barometer
mb
20260506174550 31 0 0.0 9.7 0.00 0.00 0.00 49 1015.1
20260506173043 30 247 0.0 11.3 0.00 0.00 0.00 52 1015.5
20260506171550 30 0 1.6 11.3 0.00 0.00 0.00 51 1015.8
20260506170103 30 0 0.0 14.5 0.00 0.00 0.00 50 1016.1
20260506164548 30 278 0.0 6.4 0.00 0.00 0.00 55 1016.1
20260506163109 28 62 0.0 8.0 0.00 0.00 0.00 56 1016.3
20260506161548 28 326 1.6 11.3 0.00 0.00 0.00 55 1016.2
20260506160051 28 0 0.0 9.7 0.00 0.00 0.00 55 1016.5
20260506154608 28 296 0.0 8.0 0.00 0.00 0.00 58 1016.6
20260506153051 27 250 0.0 9.7 0.00 0.00 0.00 61 1016.5
20260506151543 27 139 0.0 8.0 0.00 0.00 0.00 60 1016.7
20260506150047 26 0 0.0 12.9 0.00 0.00 0.00 62 1016.7
20260506144549 26 261 1.6 14.5 0.00 0.00 0.00 61 1016.4
20260506143059 26 0 0.0 6.4 0.00 0.00 0.00 64 1016.3
20260506141550 25 245 1.6 8.0 0.00 0.00 0.00 64 1016.2
20260506140054 25 0 0.0 3.2 0.00 0.00 0.00 66 1016.2
20260506134553 24 250 1.6 8.0 0.00 0.00 0.00 67 1016.1
20260506133050 23 0 0.0 6.4 0.00 0.00 0.00 70 1015.8
20260506131551 23 0 0.0 4.8 0.00 0.00 0.00 73 1015.7
20260506124549 21 0 0.0 3.2 0.00 0.00 0.00 79 1015.9
20260506123049 20 0 0.0 1.6 0.00 0.00 0.00 83 1015.8
20260506121547 19 0 0.0 3.2 0.00 0.00 0.00 88 1015.3
20260506120057 18 0 0.0 0.0 0.00 0.00 0.00 94 1015.6
20260506114606 17 0 0.0 0.0 0.00 0.00 0.00 96 1015.5
20260506113053 16 0 0.0 0.0 0.00 0.00 0.00 97 1015.3
20260506111548 15 0 0.0 0.0 0.00 0.00 0.00 96 1015.1
20260506110055 15 0 0.0 0.0 0.00 0.00 0.00 96 1015.1
20260506104543 15 0 0.0 0.0 0.00 0.00 0.00 96 1015.0
20260506103049 15 0 0.0 0.0 0.00 0.00 0.00 96 1014.7
20260506101551 15 0 0.0 0.0 0.00 0.00 0.00 96 1014.9
20260506100048 15 0 0.0 0.0 0.00 0.00 0.00 96 1014.9
20260506094606 15 0 0.0 0.0 0.00 0.00 0.00 96 1015.1
20260506093054 15 0 0.0 0.0 0.00 0.00 0.00 96 1015.0
20260506091556 15 0 0.0 0.0 0.00 0.00 0.00 95 1014.9
20260506090041 15 0 0.0 0.0 0.00 0.00 0.00 95 1014.8
20260506084547 15 0 0.0 0.0 0.00 0.00 0.00 95 1014.7
20260506083045 15 0 0.0 0.0 0.00 0.00 0.00 95 1014.7
20260506081547 15 0 0.0 0.0 0.00 0.00 0.00 95 1014.7
20260506073048 15 0 0.0 0.0 0.00 0.00 0.00 94 1014.8
20260506071546 15 0 0.0 0.0 0.00 0.00 0.00 94 1014.8
20260506061539 15 0 0.0 0.0 0.00 0.00 0.00 92 1015.1
20260506044550 16 0 0.0 0.0 0.00 0.00 0.00 89 1015.7
20260506043049 16 0 0.0 0.0 0.00 0.00 0.00 89 1015.7
20260506041556 16 0 0.0 0.0 0.00 0.00 0.00 88 1015.7
20260506040100 16 0 0.0 0.0 0.00 0.00 0.00 88 1015.7
20260506034604 16 0 0.0 0.0 0.00 0.00 0.00 87 1015.9
20260506033050 16 0 0.0 0.0 0.00 0.00 0.00 86 1016.0
20260506031557 16 0 0.0 0.0 0.00 0.00 0.00 85 1016.1
20260506030052 16 0 0.0 0.0 0.00 0.00 0.00 84 1015.9
20260506024543 17 0 0.0 0.0 0.00 0.00 0.00 83 1015.9
20260506023038 17 0 0.0 0.0 0.00 0.00 0.00 81 1015.7
20260506021550 17 0 0.0 0.0 0.00 0.00 0.00 80 1015.7
20260506020042 18 0 0.0 0.0 0.00 0.00 0.00 79 1015.6
20260506014541 18 0 0.0 0.0 0.00 0.00 0.00 77 1015.5
20260506013044 18 0 0.0 0.0 0.00 0.00 0.00 75 1015.5
20260506011545 18 0 0.0 1.6 0.00 0.00 0.00 74 1015.6
20260506010046 19 0 0.0 1.6 0.00 0.00 0.00 73 1015.4
20260506004551 19 0 0.0 0.0 0.00 0.00 0.00 71 1015.4
20260506003042 20 0 0.0 3.2 0.00 0.00 0.00 70 1015.2
20260506001549 20 0 0.0 6.4 0.00 0.00 0.00 68 1015.1
20260506000050 21 0 0.0 9.7 0.00 0.00 0.00 68 1015.0
20260505234556 21 0 0.0 6.4 0.00 0.00 0.00 66 1015.2
20260505233043 21 314 0.0 9.7 0.00 0.00 0.00 63 1015.2
20260505231548 22 0 0.0 12.9 0.00 0.00 0.00 62 1015.1
20260505230050 22 0 1.6 12.9 0.00 0.00 0.00 63 1015.3
20260505224549 22 0 1.6 11.3 0.00 0.00 0.00 63 1015.1
20260505223051 23 111 0.0 11.3 0.00 0.00 0.00 62 1015.1
20260505221541 23 254 3.2 11.3 0.00 0.00 0.00 59 1015.1
20260505220042 24 0 0.0 11.3 0.00 0.00 0.00 59 1015.0
20260505214550 23 48 1.6 12.9 0.00 0.00 0.00 59 1015.2
20260505213046 24 122 0.0 16.1 0.00 0.00 0.00 61 1015.2
20260505211544 24 130 4.8 14.5 0.00 0.00 0.00 60 1015.1
20260505210043 24 264 1.6 11.3 0.00 0.00 0.00 62 1015.1
20260505204549 24 22 0.0 9.7 0.00 0.00 0.00 61 1015.3
20260505203055 25 0 0.0 11.3 0.00 0.00 0.00 61 1015.3
20260505201556 25 69 3.2 16.1 0.00 0.00 0.00 59 1015.6
20260505200049 25 209 0.0 14.5 0.00 0.00 0.00 58 1015.6
20260505194606 25 120 1.6 12.9 0.00 0.00 0.00 58 1015.8
20260505193051 25 68 3.2 9.7 0.00 0.00 0.00 57 1015.8
20260505191551 26 38 0.0 11.3 0.00 0.00 0.00 56 1016.2
20260505190045 26 152 3.2 17.7 0.00 0.00 0.00 53 1016.2
20260505184549 25 0 1.6 14.5 0.00 0.00 0.00 54 1016.2
20260505183050 26 0 1.6 9.7 0.00 0.00 0.00 55 1016.4
20260505181556 26 102 0.0 16.1 0.00 0.00 0.00 55 1016.4
20260505180050 26 130 1.6 9.7 0.00 0.00 0.00 57 1016.4